Home   Weather   Maracay   Past weeks

Flag for Venezuela Past Weather in Maracay, Venezuela — Yesterday and Last 2 Weeks

Now
75 °F

Overcast.


Feels Like: 75 °F
Forecast: 73 / 90 °F
Wind: 3 mph from Northeast

Location: Valencia Airport

Current Time: Aug 19, 2017 at 2:44:44 pm

Latest Report: Aug 19, 2017 at 12:00 pm


Visibility: N/A

Pressure: 29.92 "Hg

Humidity: 89%

Dew Point: 72 °F

Location of MaracayLocation

Past Weather in Maracay — Graph

°F

Maracay Temperature Yesterday

Maximum temperature yesterday: 90 °F (at 3:00 pm)
Minimum temperature yesterday: 70 °F (at 6:00 am)
Average temperature yesterday: 80 °F

High & Low Weather Summary for the Past Weeks

 TemperatureHumidityPressure
High91 °F (Aug 12, 4:00 pm)100% (Aug 18, 12:00 am)30.04 "Hg (Aug 18, 12:00 am)
Low70 °F (Aug 11, 6:00 am)43% (Aug 14, 3:00 pm)29.80 "Hg (Aug 18, 5:00 pm)
Average81 °F72%29.95 "Hg
* Reported Aug 5 3:00 pm — Aug 19 12:00 pm, Maracay. Weather by CustomWeather, © 2017

Note: Actual official high and low records may vary slightly from our data, if they occured in-between our weather recording intervals... More about our weather records

Advertising

Maracay Weather History for the Previous 24 Hours

Scroll right to see more
 ConditionsComfort  
Time TempWeatherWind HumidityBarometerVisibility
12:00 pm
Sat, Aug 19
75 °FOvercast.3 mph89%29.92 "HgN/A
11:00 am77 °FHeavy rain. Overcast.2 mph94%29.95 "Hg4 mi
10:00 am75 °FOvercast.3 mph94%29.92 "HgN/A
9:00 am75 °FDrizzle. Overcast.2 mph94%29.92 "Hg6 mi
8:00 am75 °FPartly sunny.2 mph94%29.89 "HgN/A
7:00 am75 °FPartly sunny.No wind94%29.95 "HgN/A
11:00 pm
Fri, Aug 18
75 °FPassing clouds.2 mph89%29.92 "HgN/A
10:00 pm77 °FPassing clouds.3 mph74%29.89 "HgN/A
9:00 pm77 °FPassing clouds.3 mph74%29.89 "HgN/A
8:00 pm79 °FPassing clouds.9 mph74%29.89 "HgN/A
7:00 pm82 °FPassing clouds.3 mph66%29.83 "HgN/A
6:00 pm84 °FPartly sunny.5 mph62%29.80 "HgN/A
5:00 pm86 °FScattered clouds.6 mph59%29.80 "HgN/A
4:00 pm88 °FScattered clouds.5 mph55%29.83 "HgN/A
3:00 pm90 °FScattered clouds.10 mph52%29.83 "HgN/A
2:00 pm86 °FPartly sunny.10 mph62%29.86 "HgN/A
Weather by CustomWeather, © 2017

See weather overviewHow to use our weather pages